Location: Владивосток
(43.1151°N, 131.8856°E)
Time: 23:44:43
(UTC+10:00)

First-Move - Visible Passes

Search period start: 02 July 2022 00:00
Search period end: 12 July 2022 00:00
Orbit: 572 x 659 km, 97.6° (Epoch: 01 July)

Date Brightness Start Highest point End Pass type
(mag) Time Alt. Az. Time Alt. Az. Time Alt. Az.
02 Jul ? 04:56:13 10° NNE 05:00:33 48° E 05:04:56 10° S visible
04 Jul ? 03:54:54 10° ENE 03:55:57 11° E 03:57:01 10° ESE visible
05 Jul ? 04:09:17 10° NE 04:12:06 16° E 04:14:53 10° SE visible
06 Jul ? 04:24:34 10° NE 04:28:10 23° E 04:31:47 10° SSE visible
07 Jul ? 04:40:07 10° NNE 04:44:14 33° E 04:48:20 10° SSE visible
08 Jul ? 04:55:50 10° NNE 05:00:14 49° E 05:04:38 10° S visible
10 Jul ? 03:54:22 10° ENE 03:55:36 11° E 03:56:48 10° ESE visible
11 Jul ? 04:08:51 10° NE 04:11:43 16° E 04:14:33 10° SE visible
